Location: Vanderbilt Beach
(26.2700°N, 81.7900°W)
Time: 04:42:33
(UTC-04:00)

X-37B - Visible Passes

Search period start: 01 October 2020 00:00
Search period end: 11 October 2020 00:00
Orbit: 386 x 387 km, 45.0° (Epoch: 18 September)

Date Brightness Start Highest point End Pass type
(mag) Time Alt. Az. Time Alt. Az. Time Alt. Az.
01 Oct 3.0 20:39:49 10° W 20:42:08 18° NNW 20:43:20 15° N visible
02 Oct 2.0 19:40:29 10° WSW 19:43:26 37° NW 19:46:25 10° NNE visible
03 Oct 3.6 20:21:09 10° NW 20:21:48 10° NNW 20:22:28 10° NNW visible
